HDGA4: War Eagle Creek At Hindsville, AR

                                SHEF ID:       HDGA4     War Eagle Crk nr Hindsville,AR
STATION TYPE:

STAGE RIV-FLOW WTR-TEMP CONDUCT BAT-LOAD
ft cfs F umho/cm volt
Ccp-Rev Ccp-Rev Ccp-Rev Ccp-Rev Ccp-Rev
(America/Chicago)
11/23 00:00 1.79 245 58.35 ---- 11.06
11/23 01:00 1.77 241 58.23 ---- 11.05
11/23 02:00 1.76 238 58.08 ---- 11.04
11/23 03:00 1.74 234 57.99 ---- 11.05
11/23 04:00 1.73 231 57.88 ---- 11.03
11/23 05:00 1.71 227 57.76 ---- 11.04
11/23 06:00 1.70 225 57.60 ---- 11.03
11/23 07:00 1.69 223 57.56 ---- 11.03
11/23 08:00 1.67 218 57.47 ---- 11.03
11/23 09:00 1.66 216 57.45 ---- 11.05
11/23 10:00 1.65 214 57.43 ---- 11.23
11/23 11:00 1.63 210 57.18 ---- 11.19
11/23 12:00 1.62 207 57.24 ---- 11.31
11/23 13:00 1.60 203 57.40 ---- 11.25
11/23 14:00 1.59 201 57.83 ---- 11.25
11/23 15:00 1.58 199 58.35 ---- 11.21
11/23 16:00 1.57 197 58.75 ---- 11.17
11/23 17:00 1.56 195 59.02 ---- 11.13
11/23 18:00 1.55 193 58.86 ---- 11.09
11/23 19:00 1.55 193 58.68 ---- 11.08
11/23 20:00 1.54 191 58.51 ---- 11.06
11/23 21:00 1.53 189 58.30 ---- 11.04
11/23 22:00 1.51 185 58.14 ---- 11.03
11/23 23:00 1.50 183 57.96 ---- 11.02
Data processed at Mon 24Nov2025 05:13 GMT

NOTICE: If you are parsing this page

Please convert to using our Data API. Starting January 1st, 2026 we will be migrating to: https://water.usace.army.mil with modern pages rendered in JavaScript. You will no longer be able to scrape this page! CWMSDataAPI (CDA)

Timeseries IDs (TSIDs)

TSIDs used from left to right in the data table
HIND.Stage.Inst.1Hour.0.Ccp-Rev
HIND.Flow.Inst.1Hour.0.Ccp-Rev
HIND.Temp-Water.Inst.1Hour.0.Ccp-Rev
HIND.Cond.Inst.1Hour.0.Ccp-Rev
HIND.Volt-Battery Load.Inst.1Hour.0.Ccp-Rev

                            

All information presented herein is the property of the government of the United States of America and may be revised or deleted at any time without prior notice. Dissemination of this information without the expressed written consent of the Public Affairs Office, Tulsa District U.S. Army Corps of Engineers is strictly prohibited. These data are gathered electronically and, as presented, have NOT undergone any form of quality control. These data are NOT guaranteed to be valid or correct.